Tracking 32139 objects as of 18-Nov-2025
HD Live streaming from Space Station
objects crossing your sky now

IRIDIUM 33 DEB

Track IRIDIUM 33 DEB now!
10-day predictions


NORAD ID: 38228
Int'l Code: 1997-051ZC
Perigee: 763.5 km
Apogee: 853.0 km
Inclination: 86.3 °
Period: 100.9 minutes
Semi major axis: 7179 km
RCS: 0.0068 m2 (small)
Launch date: September 14, 1997
Source: United States (US)
Launch site: TYURATAM MISSILE AND SPACE COMPLEX (TTMTR)

Note: This is SATELLITE DEBRIS
Your satellite tracking list
Your tracking list is empty




NASA's NSSDC Master Catalog

Two Line Element Set (TLE):
1 38228U 97051ZC  25321.52710100  .00001972  00000-0  78397-3 0  9990
2 38228  86.2955  59.1846 0062367 272.2658 102.2568 14.27204359844220
Source of the keplerian elements: AFSPC